[[{"header":{"parameterUnit":"m.s-1","parameterCategory":1,"la1":30.2991,"la2":30.254,"lo1":-89.0895,"lo2":-89.0444,"dy":0.0017,"dx":0.0017,"nx":28,"ny":28,"refTime":"2023-10-22T09:00:00:Z","depth":0,"parameterNumber":2,"parameterNumberName":"U-component_of_WINDS"},"data":[0,0,0,0,0,0,0,0,0,0,0,0,0,0,0,0,0,0,0,0,0,0,0,0,0,0,0,0,0,0,0,0,0,0,0,0,0,0,0,0,0,0,0,0,0,0,0,0,0,0,0,0,0,0,0,0,0,0,-2.7789,-2.779,0,-2.7868,-2.7869,-2.7869,-2.7902,-2.7902,-2.7901,-2.7901,-2.7983,-2.7985,-2.7987,0,0,0,0,0,0,0,0,0,0,0,0,0,-2.7671,-2.7673,-2.7789,-2.779,-2.7791,-2.7868,-2.7869,-2.787,-2.7902,-2.7902,-2.7901,-2.7901,-2.7982,-2.7985,-2.7987,0,0,0,0,0,0,0,0,0,0,0,0,0,-2.7733,-2.7674,-2.7789,-2.7816,-2.782,-2.7867,-2.7869,-2.787,-2.7902,-2.7902,-2.7901,-2.7901,-2.7981,-2.7984,-2.7988,-2.8014,0,0,-2.7998,-2.8,0,0,0,0,0,0,0,0,-2.7729,-2.7737,-2.7811,-2.7814,-2.7818,-2.7875,-2.7857,-2.7918,-2.7902,-2.7871,-2.7901,-2.7901,-2.7947,-2.7953,-2.7969,-2.8018,-2.8022,-2.7999,-2.8001,-2.8002,-2.8003,0,0,0,0,0,0,0,-2.7725,-2.7734,-2.782,-2.7812,-2.7817,-2.7826,-2.7835,-2.7869,-2.7909,-2.7873,-2.7876,-2.7885,-2.7949,-2.7965,-2.7971,-2.8023,-2.7999,-2.8002,-2.8004,-2.8005,-2.8103,-2.8103,0,0,0,0,0,0,-2.7716,-2.773,-2.7818,-2.7823,-2.7772,-2.7828,-2.7838,-2.7857,-2.7909,-2.7917,-2.7885,-2.7886,-2.7959,-2.7967,-2.7974,-2.801,-2.8002,-2.8006,-2.8008,-2.8102,-2.8103,-2.8103,0,0,0,0,0,0,-2.7713,-2.7723,-2.7815,-2.7777,-2.779,-2.7831,-2.7852,-2.7858,-2.7875,-2.7918,-2.7925,-2.7894,-2.7959,-2.7969,-2.8005,-2.8013,-2.8007,-2.801,-2.8102,-2.8102,-2.8103,-2.8082,0,0,0,0,0,0,-2.771,-2.7722,-2.7731,-2.7777,-2.7791,-2.7843,-2.7852,-2.786,-2.7881,-2.7883,-2.7928,-2.7935,-2.796,-2.8,-2.8008,-2.8018,-2.8013,-2.8101,-2.8102,-2.8103,-2.8082,-2.8082,-2.8082,0,0,0,0,0,-2.7705,-2.7722,-2.7732,-2.7742,-2.7804,-2.7843,-2.7852,-2.7879,-2.7881,-2.7892,-2.792,-2.7934,-2.8012,-2.8003,-2.8013,-2.8024,-2.8101,-2.8102,-2.8103,-2.8082,-2.8082,-2.8082,0,0,0,0,0,0,-2.7675,-2.7728,-2.774,-2.7771,-2.7803,-2.7849,-2.7862,-2.7878,-2.7909,-2.791,-2.7944,-2.7954,-2.7987,-2.801,-2.7999,-2.8055,-2.8057,-2.8061,-2.8038,-2.8039,-2.8038,-2.8032,-2.8016,0,0,0,0,0,-2.7672,-2.7699,-2.7744,-2.7768,-2.7783,-2.782,-2.7838,-2.7858,-2.7892,-2.7905,-2.7936,-2.7969,-2.8001,-2.8021,-2.8053,-2.8087,-2.8098,-2.81,-2.81,-2.8099,-2.8101,-2.8124,-2.8125,-2.8107,-2.8107,-2.8107,0,0,-2.7666,-2.7698,-2.7713,-2.7763,-2.7789,-2.7818,-2.7831,-2.786,-2.7882,-2.7909,-2.7945,-2.797,-2.801,-2.8045,-2.8062,-2.8065,-2.811,-2.8101,-2.81,-2.8102,-2.8125,-2.8126,-2.8128,-2.8108,-2.8108,-2.8108,0,0,-2.7669,-2.7696,-2.772,-2.7747,-2.7788,-2.7813,-2.7819,-2.7864,-2.7881,-2.7918,-2.7941,-2.7968,-2.8022,-2.805,-2.8072,-2.8091,-2.8106,-2.8101,-2.81,-2.8121,-2.8122,-2.8124,-2.8132,-2.8134,-2.8103,-2.8103,-2.8103,0,-2.7656,-2.7699,-2.773,-2.7758,-2.7781,-2.7809,-2.7834,-2.7859,-2.7908,-2.7924,-2.7926,-2.7997,-2.8026,-2.807,-2.8075,-2.8091,-2.81,-2.8095,-2.812,-2.8121,-2.8123,-2.8131,-2.8134,-2.8102,-2.8102,-2.8103,-2.8103,0,-2.7682,-2.7712,-2.7726,-2.7774,-2.7798,-2.7825,-2.7862,-2.7883,-2.7902,-2.7927,-2.7967,-2.8003,-2.8044,-2.8056,-2.8074,-2.8104,-2.8104,-2.8113,-2.8116,-2.8123,-2.8132,-2.8135,-2.8101,-2.8101,-2.8102,-2.8102,0,0,-2.7664,-2.7732,-2.7736,-2.776,-2.7809,-2.7833,-2.7864,-2.7904,-2.7922,-2.7957,-2.7984,-2.8031,-2.8041,-2.8065,-2.8087,-2.8106,-2.8121,-2.8113,-2.8114,-2.8113,-2.8159,-2.8152,-2.8154,-2.8133,-2.8133,-2.8134,-2.8156,0,-2.7674,-2.7727,-2.7758,-2.78,-2.7829,-2.7859,-2.7885,-2.7919,-2.7946,-2.7976,-2.8005,-2.8039,-2.8048,-2.8063,-2.8084,-2.8115,-2.8131,-2.8114,-2.8159,-2.816,-2.8147,-2.8159,-2.815,-2.8169,-2.8159,-2.816,-2.816,0,-2.7692,-2.7726,-2.7771,-2.782,-2.7834,-2.7856,-2.7898,-2.7926,-2.7967,-2.7985,-2.8015,-2.8037,-2.8073,-2.8075,-2.8125,-2.8113,-2.8134,-2.8153,-2.8154,-2.8158,-2.8159,-2.8163,-2.8175,-2.8178,-2.8165,-2.8165,-2.8165,0,-2.7675,-2.7733,-2.7768,-2.7787,-2.7845,-2.7861,-2.7886,-2.7927,-2.7951,-2.7988,-2.8004,-2.8045,-2.8067,-2.8099,-2.8134,-2.8132,-2.8181,-2.8186,-2.8198,-2.8197,-2.8205,-2.8204,-2.822,-2.822,-2.822,-2.822,-2.822,0,-2.7682,-2.7708,-2.7762,-2.7783,-2.7814,-2.7851,-2.7882,-2.791,-2.7947,-2.7975,-2.8004,-2.8031,-2.8075,-2.8108,-2.8135,-2.8173,-2.8183,-2.82,-2.8207,-2.8197,-2.8194,-2.8209,-2.8209,-2.8221,-2.822,-2.822,-2.822,0,-2.7668,-2.7704,-2.7745,-2.7798,-2.7812,-2.7833,-2.7879,-2.7902,-2.7931,-2.7967,-2.7978,-2.8025,-2.8065,-2.8103,-2.8157,-2.8176,-2.8215,-2.8224,-2.82,-2.8204,-2.8214,-2.8213,-2.824,-2.8246,-2.8242,-2.8242,-2.8242,0,-2.7669,-2.769,-2.7746,-2.7768,-2.7793,-2.7826,-2.7851,-2.789,-2.7915,-2.7966,-2.7984,-2.8027,-2.8063,-2.8127,-2.8166,-2.8208,-2.8218,-2.8226,-2.8225,-2.8215,-2.8219,-2.8217,-2.822,-2.8224,-2.8224,-2.8224,-2.8224,0,-2.7668,-2.7687,-2.7721,-2.7763,-2.7792,-2.7827,-2.7863,-2.788,-2.7926,-2.7953,-2.7995,-2.8024,-2.808,-2.8123,-2.8171,-2.8199,-2.822,-2.8224,-2.8229,-2.8219,-2.8204,-2.8213,-2.8198,-2.8223,-2.8223,-2.8223,-2.8223,-2.8223,-2.7662,-2.7683,-2.7727,-2.7766,-2.7797,-2.7831,-2.7856,-2.789,-2.7926,-2.7974,-2.7996,-2.8039,-2.8084,-2.815,-2.8178,-2.8214,-2.8218,-2.8225,-2.8227,-2.8228,-2.8226,-2.82,-2.8223,-2.8223,-2.8223,-2.8223,-2.8223,0,-2.7663,-2.7694,-2.7729,-2.7779,-2.7811,-2.7829,-2.7871,-2.7896,-2.7933,-2.7973,-2.8009,-2.8059,-2.8102,-2.8146,-2.8192,-2.8212,-2.8223,-2.8223,-2.8221,-2.8228,-2.822,-2.821,-2.8214,-2.8214,-2.8214,-2.8214,-2.8214,-2.8214,-2.7667,-2.7705,-2.7729,-2.7783,-2.7814,-2.7856,-2.7879,-2.7912,-2.7944,-2.7998,-2.8034,-2.8063,-2.8106,-2.8156,-2.8197,-2.8209,-2.8225,-2.8222,-2.8237,-2.8228,-2.8228,-2.8228,-2.822,-2.8225,-2.8225,-2.8242,-2.8242,-2.8242]},{"header":{"parameterUnit":"m.s-1","parameterCategory":1,"la1":30.2991,"la2":30.254,"lo1":-89.0895,"lo2":-89.0444,"dy":0.0017,"dx":0.0017,"nx":28,"ny":28,"refTime":"2023-10-22T09:00:00:Z","depth":0,"parameterNumber":3,"parameterNumberName":"V-component_of_WINDS"},"data":[0,0,0,0,0,0,0,0,0,0,0,0,0,0,0,0,0,0,0,0,0,0,0,0,0,0,0,0,0,0,0,0,0,0,0,0,0,0,0,0,0,0,0,0,0,0,0,0,0,0,0,0,0,0,0,0,0,0,1.9094,1.9095,0,1.9125,1.9125,1.9125,1.9209,1.9211,1.9213,1.9215,1.9239,1.9238,1.9237,0,0,0,0,0,0,0,0,0,0,0,0,0,1.9104,1.9103,1.9094,1.9095,1.9095,1.9125,1.9125,1.9125,1.9209,1.9211,1.9213,1.9216,1.924,1.9238,1.9237,0,0,0,0,0,0,0,0,0,0,0,0,0,1.9113,1.9103,1.9094,1.914,1.9145,1.9125,1.9125,1.9126,1.9208,1.9211,1.9214,1.9217,1.924,1.9238,1.9237,1.9172,0,0,1.9232,1.9231,0,0,0,0,0,0,0,0,1.9112,1.9113,1.9133,1.9137,1.9142,1.9166,1.9138,1.9141,1.9208,1.9184,1.9215,1.9218,1.9212,1.9213,1.9213,1.9173,1.9174,1.9232,1.9231,1.923,1.923,0,0,0,0,0,0,0,1.9112,1.9112,1.9106,1.9133,1.9139,1.9158,1.9162,1.9138,1.9182,1.9186,1.9193,1.9195,1.9215,1.9214,1.9214,1.9175,1.9232,1.9231,1.923,1.9229,1.9085,1.9082,0,0,0,0,0,0,1.9105,1.9111,1.9105,1.9107,1.9134,1.9156,1.9161,1.9156,1.9183,1.919,1.9193,1.9199,1.9215,1.9216,1.9215,1.9142,1.923,1.9229,1.9228,1.9088,1.9084,1.9081,0,0,0,0,0,0,1.9105,1.9104,1.9104,1.9111,1.9112,1.9153,1.9146,1.9155,1.9154,1.9188,1.9195,1.9184,1.9217,1.9217,1.9183,1.9144,1.9228,1.9227,1.9091,1.9087,1.9083,1.8994,0,0,0,0,0,0,1.9105,1.9103,1.908,1.911,1.9112,1.9073,1.9144,1.9153,1.9151,1.916,1.9181,1.9188,1.922,1.9185,1.9181,1.9143,1.9225,1.9095,1.9089,1.9084,1.9,1.8987,1.8975,0,0,0,0,0,1.9105,1.9052,1.9079,1.9077,1.9084,1.907,1.9071,1.9111,1.9148,1.9124,1.9147,1.9187,1.9149,1.9181,1.9177,1.9138,1.9097,1.9091,1.9084,1.9006,1.8989,1.8976,0,0,0,0,0,0,1.9015,1.9057,1.9087,1.9042,1.9052,1.9084,1.9056,1.9092,1.909,1.9098,1.9145,1.9149,1.9108,1.912,1.9155,1.9077,1.913,1.9122,1.9071,1.9056,1.9043,1.9041,1.9224,0,0,0,0,0,1.899,1.8977,1.9014,1.8971,1.8975,1.9014,1.901,1.904,1.9052,1.9055,1.9075,1.9083,1.9073,1.9065,1.9058,1.9003,1.9008,1.8974,1.8961,1.8951,1.8944,1.8916,1.8901,1.906,1.906,1.906,0,0,1.8938,1.896,1.8948,1.8954,1.8965,1.895,1.9017,1.8997,1.8986,1.9052,1.9021,1.9036,1.9048,1.9003,1.8984,1.9011,1.8901,1.8943,1.8934,1.8933,1.8907,1.8892,1.8879,1.9055,1.9056,1.9057,0,0,1.8835,1.8851,1.8817,1.8828,1.8845,1.8872,1.8864,1.8891,1.8904,1.8875,1.8924,1.891,1.8892,1.8899,1.89,1.8801,1.8838,1.8797,1.8732,1.8704,1.8691,1.8681,1.8645,1.8632,1.879,1.879,1.879,0,1.8768,1.8748,1.8795,1.8773,1.8773,1.8835,1.8801,1.8808,1.8821,1.8819,1.885,1.883,1.8842,1.88,1.8776,1.8775,1.8766,1.8795,1.869,1.8679,1.867,1.8637,1.8623,1.8785,1.8785,1.8786,1.8786,0,1.8664,1.865,1.862,1.8634,1.8632,1.8603,1.8644,1.8636,1.8667,1.869,1.8659,1.8676,1.8674,1.8666,1.8695,1.8628,1.8645,1.8682,1.8735,1.8649,1.8619,1.8606,1.8778,1.8779,1.8781,1.8782,0,0,1.8504,1.8546,1.8534,1.8542,1.8566,1.8555,1.8529,1.8529,1.8521,1.8528,1.8507,1.8491,1.8526,1.8527,1.8557,1.8533,1.8454,1.8573,1.8574,1.855,1.8381,1.8353,1.8337,1.8479,1.8477,1.8475,1.838,0,1.8407,1.8368,1.841,1.8361,1.8348,1.8407,1.8384,1.8396,1.8417,1.8408,1.843,1.8418,1.8466,1.8467,1.8446,1.8468,1.8421,1.8476,1.8458,1.8457,1.8453,1.8322,1.8291,1.82,1.8369,1.8367,1.8365,0,1.8289,1.8293,1.8243,1.8272,1.8268,1.8248,1.8252,1.8242,1.8257,1.8274,1.8276,1.8313,1.8289,1.8342,1.8308,1.8345,1.8341,1.835,1.8348,1.8347,1.8405,1.8316,1.8173,1.8159,1.8347,1.8349,1.835,0,1.8177,1.817,1.814,1.8144,1.8177,1.8161,1.8173,1.8191,1.8188,1.8191,1.819,1.8189,1.8188,1.8186,1.8221,1.8257,1.8183,1.8239,1.8195,1.8194,1.8176,1.8176,1.8029,1.8174,1.8174,1.8175,1.8175,0,1.8064,1.8031,1.809,1.8071,1.8036,1.8084,1.8047,1.8066,1.8081,1.8066,1.8116,1.81,1.8149,1.8138,1.8166,1.8134,1.8133,1.8145,1.8152,1.814,1.8138,1.8137,1.8144,1.8171,1.8172,1.8172,1.8173,0,1.7932,1.797,1.7941,1.7976,1.7984,1.7956,1.7985,1.7968,1.7994,1.7974,1.7972,1.801,1.8,1.8036,1.8031,1.805,1.8002,1.8021,1.7998,1.8003,1.7957,1.7961,1.7803,1.7784,1.7942,1.794,1.7939,0,1.7857,1.7834,1.7866,1.7861,1.7872,1.7862,1.7861,1.7907,1.7903,1.7919,1.79,1.7894,1.7893,1.7873,1.79,1.7896,1.7914,1.7859,1.7914,1.7902,1.7913,1.7914,1.7911,1.7847,1.7845,1.7844,1.7842,0,1.772,1.7741,1.7738,1.7742,1.774,1.7744,1.7752,1.7744,1.7794,1.7787,1.7779,1.7778,1.7774,1.7768,1.777,1.7781,1.7819,1.7826,1.7815,1.7801,1.7789,1.7795,1.7966,1.7828,1.783,1.7831,1.7832,1.7832,1.7614,1.7597,1.7617,1.7613,1.7624,1.7631,1.7617,1.7642,1.7636,1.7639,1.7666,1.7652,1.7667,1.7675,1.7683,1.7672,1.7697,1.7682,1.7678,1.7673,1.7665,1.7792,1.7672,1.7673,1.7673,1.7673,1.7674,0,1.748,1.7496,1.7492,1.7503,1.7499,1.7538,1.7549,1.7543,1.7531,1.7543,1.7541,1.7531,1.7525,1.7552,1.755,1.7536,1.7553,1.7534,1.7535,1.7537,1.7643,1.7652,1.752,1.752,1.752,1.752,1.752,1.752,1.7409,1.7381,1.7404,1.7383,1.7399,1.7388,1.7391,1.7397,1.7407,1.7395,1.7391,1.741,1.7428,1.7428,1.7424,1.7432,1.7428,1.7402,1.7416,1.7514,1.7529,1.7543,1.7552,1.7401,1.7401,1.7311,1.731,1.7309]}]]